Simultaneous Nadir Overpasses (SNOs) Predictions

Prediction of SNOs between GOES-15 and METOP-C Satellite Orbit:

Table of predicted SNOs for the next 14.0 days since TLE Epoch: 2/18/2023
Index Date Time (GOES-15) GOES-15 Lat,Lon METOP-C Lat,Lon Distance(km) Time Diff (sec)
1 02/18/2023 18:18:58 -0.03,-128.17 0.87,-132.29 469.48 80
2 02/19/2023 18:00:59 -0.02,-128.15 -0.23,-127.30 98.26 80
3 02/21/2023 06:17:20 0.03,-128.17 -0.78,-131.90 424.40 80
4 02/22/2023 05:59:20 0.02,-128.16 0.33,-126.90 143.63 80
5 02/23/2023 18:15:31 -0.03,-128.10 0.72,-131.45 381.91 80
6 02/24/2023 17:57:31 -0.03,-128.09 -0.40,-126.46 185.68 80
7 02/26/2023 06:13:51 0.04,-128.09 -0.64,-131.05 337.61 80
8 02/27/2023 05:55:52 0.03,-128.08 0.48,-126.06 229.84 80
9 02/28/2023 18:12:03 -0.05,-128.01 0.51,-130.62 296.59 80
10 03/01/2023 17:54:03 -0.04,-127.99 -0.56,-125.62 270.39 80
11 03/03/2023 06:10:23 0.05,-127.99 -0.44,-130.21 253.78 80
